RH
73 72 72 75 73 73 76 74 69 54 52 52 55 57 63 64 66 77 79 84 92 91 91 89 88 90 79 76 77 74 71 68 57 48 57 59 52 47 46 44 41 41 49
68 71 72 72 74 75 75 76 75 58 52 54 59 56 61 65 73 79 83 78 86 86 86 91 88 82 92 88 82 84 76 75 70 65 56 57 62 62 48 48 47 54 50
65 69 70 71 75 75 75 75 77 60 53 58 65 60 71 65 71 69 67 81 84 83 81 85 86 86 88 78 83 77 76 83 81 77 67 63 64 63 62 60 58 55 51
61 65 70 73 74 74 76 78 80 60 56 60 63 67 73 71 76 76 79 83 82 83 84 84 84 85 87 86 84 85 83 82 75 81 71 64 65 67 72 68 61 57 59
65 66 70 74 75 77 80 81 80 76 63 58 66 73 77 75 70 77 79 82 84 84 85 86 86 82 76 72 80 79 85 86 78 71 68 66 63 62 63 61 62 62 64
68 68 70 76 78 80 82 84 85 81 76 79 81 79 80 73 64 65 62 75 83 87 83 83 84 72 64 61 62 65 75 84 87 79 68 66 73 76 71 73 72 71 66
69 71 74 79 81 83 84 86 88 85 83 84 84 82 82 78 63 58 56 66 71 76 82 83 82 73 77 79 83 71 69 70 77 83 87 84 83 83 85 89 85 82 80
71 73 76 80 82 84 86 88 89 86 88 88 86 86 85 82 72 62 62 63 76 76 76 75 78 76 75 79 81 80 80 81 89 87 89 79 88 90 94 94 96 98 97
71 73 77 81 83 84 87 88 87 87 87 87 87 89 90 85 74 60 65 84 81 84 80 80 82 81 80 80 85 81 80 82 81 86 87 87 91 91 95 100 100 100 96
69 72 76 81 83 86 87 89 89 88 85 83 84 88 89 88 86 67 69 81 78 79 82 87 88 86 86 86 89 89 87 86 86 87 90 96 95 89 90 99 100 100 100
67 72 80 83 85 86 88 90 89 90 83 90 85 86 89 91 88 77 69 88 78 75 77 75 79 84 85 81 82 93 93 91 92 99 100 99 98 99 99 100 99 98 100
74 77 83 85 81 82 89 90 90 90 91 90 90 88 85 92 92 88 78 83 87 86 82 79 82 87 88 85 89 90 89 90 99 100 100 100 100 100 100 99 99 99 99
79 81 83 85 85 82 90 90 88 91 80 83 80 79 77 81 89 92 87 83 88 93 89 86 87 90 93 94 94 95 98 100 100 100 100 100 100 99 97 93 95 85 82
78 80 83 85 85 83 85 83 79 79 80 75 75 76 75 77 85 86 95 95 95 98 96 95 98 98 98 100 100 100 100 100 100 100 100 99 99 94 80 73 72 74 77
72 73 77 77 84 83 78 77 77 76 74 73 74 75 76 78 80 84 88 97 92 89 94 100 100 100 100 100 100 100 100 100 99 99 93 83 78 74 70 73 76 74 71
81 74 67 65 75 76 91 95 91 90 87 84 81 81 84 84 85 86 92 99 99 100 100 100 100 100 100 100 98 97 96 89 87 84 80 77 74 73 74 72 75 74 76
85 83 96 97 94 81 78 80 91 99 99 87 88 87 91 87 93 97 99 98 100 100 99 100 97 92 90 87 89 82 76 82 93 83 82 80 77 74 78 75 72 72 72
87 77 50 98 92 95 92 86 84 93 94 100 100 99 100 100 98 97 95 91 88 86 88 95 98 95 94 83 84 82 84 91 96 98 93 83 80 78 76 75 77 93 96
85 84 88 99 100 97 86 83 81 88 90 100 100 95 85 78 75 72 74 83 90 96 99 99 99 98 100 99 98 98 98 98 99 98 99 92 86 84 82 95 95 96 94
87 99 99 100 97 89 85 82 81 83 90 90 96 100 99 85 90 99 100 100 100 100 100 99 99 98 96 97 97 98 99 99 99 99 99 98 98 99 97 91 92 93 96
82 99 99 96 96 98 96 96 99 100 100 100 100 100 100 100 100 100 97 98 99 100 100 99 97 93 93 95 96 96 94 93 92 94 98 97 99 99 99 100 97 90 93
86 92 97 95 97 97 98 100 100 100 100 100 100 100 99 99 99 99 100 99 99 99 99 99 96 94 94 94 95 97 98 97 95 96 99 98 98 99 98 99 99 96 96
87 91 96 95 97 98 96 98 100 100 100 100 100 100 99 100 100 100 99 99 100 100 100 100 100 100 99 97 95 93 94 95 98 97 99 99 100 99 99 99 100 99 99
91 91 95 97 98 97 97 99 100 100 100 100 100 100 100 100 100 100 100 100 100 100 99 96 98 98 95 91 88 86 94 91 95 98 98 98 97 99 100 99 100 99 99
93 94 95 98 98 99 100 100 99 98 99 99 100 100 100 100 99 95 91 88 82 77 72 67 62 64 64 62 57 61 75 88 88 91 98 99 96 92 92 94 98 98 98
92 96 98 98 99 99 99 100 99 98 96 94 90 87 80 72 68 64 64 58 56 57 56 55 56 56 53 46 28 29 32 46 68 82 90 89 97 97 95 91 86 86 96
Wind_Speed
36 35 35 33 34 33 30 30 30 30 26 25 24 23 20 19 19 19 19 16 14 14 13 13 13 13 13 12 11 11 12 11 15 18 15 13 18 18 18 18 19 21 21
38 37 36 35 33 31 33 29 29 32 30 29 26 25 23 20 19 18 18 17 17 17 16 15 15 14 15 15 14 15 15 15 16 20 19 18 19 17 22 23 23 20 22
38 37 35 35 32 33 33 32 31 34 34 29 26 27 24 24 21 20 21 19 18 19 18 18 18 16 17 16 17 17 16 16 16 18 23 20 20 17 18 22 23 25 27
38 37 35 36 36 35 33 32 31 35 35 33 31 28 26 25 23 21 20 20 20 19 20 20 20 19 20 19 19 18 17 18 19 20 24 24 23 21 19 23 23 23 23
37 37 38 36 35 33 31 32 32 31 35 36 32 29 27 25 25 25 24 22 22 21 21 21 21 23 25 26 21 20 17 18 18 20 22 22 23 21 22 23 25 26 26
37 37 35 34 33 34 33 32 30 32 33 30 29 28 27 28 30 33 31 24 23 22 23 23 24 28 31 32 32 30 28 24 24 24 27 27 25 25 25 25 26 27 26
37 34 34 33 34 34 33 32 32 32 29 29 28 28 29 32 37 37 37 33 28 27 26 25 24 24 26 26 25 29 31 32 35 36 33 30 31 27 27 27 28 30 31
35 34 33 34 33 32 31 31 31 30 29 29 28 29 29 32 38 39 38 38 33 32 31 31 30 31 29 27 25 27 27 27 26 28 33 39 35 31 29 30 30 31 37
33 34 34 34 32 31 31 31 29 27 27 28 27 27 29 32 37 37 35 30 32 34 33 32 31 32 31 31 30 30 31 29 27 31 35 36 35 34 34 34 29 24 23
36 36 33 34 33 33 32 31 30 29 28 26 27 28 29 30 32 36 33 27 28 29 28 29 32 34 32 32 32 28 30 28 26 25 24 25 28 30 29 28 30 25 24
29 30 31 33 32 31 30 28 27 27 25 26 26 26 26 28 30 34 32 30 28 26 25 24 24 27 30 31 33 31 30 27 26 26 27 30 30 30 27 23 29 30 26
28 29 30 30 30 28 28 26 27 26 25 24 24 23 23 24 29 28 29 30 31 26 23 21 20 23 26 23 25 29 29 30 36 32 28 25 24 25 23 20 19 23 27
29 29 28 28 27 25 27 26 25 25 24 24 23 22 21 20 21 24 28 26 27 33 25 22 22 22 22 22 23 25 27 30 32 27 24 24 19 17 18 20 16 16 18
26 26 27 28 27 26 25 25 25 24 24 23 21 20 19 18 18 17 19 26 27 28 31 30 28 27 26 26 26 24 24 24 18 15 15 14 13 12 12 13 14 14 16
20 23 24 24 28 26 24 22 24 22 24 23 21 20 19 17 17 16 15 14 17 22 23 20 21 23 22 21 18 10 8 7 7 6 7 9 10 12 12 10 10 11 13
8 10 13 15 20 22 22 17 20 20 23 23 18 16 17 15 13 13 14 14 13 12 12 14 13 11 9 7 6 6 5 4 3 4 6 8 9 10 10 9 9 11 12
7 10 8 4 13 11 16 16 11 6 12 17 19 18 17 14 16 13 11 9 9 13 8 8 9 7 5 4 3 3 3 1 1 4 6 8 9 9 9 11 11 11 13
7 6 6 9 21 13 13 13 12 11 9 8 12 17 15 13 11 10 10 10 10 8 7 7 7 6 5 3 1 0 2 3 4 5 7 9 9 9 12 12 11 10 10
3 6 16 22 18 14 13 13 12 12 12 16 19 18 18 19 19 16 13 10 12 12 11 11 8 6 6 4 3 3 4 5 5 7 7 8 9 10 12 10 9 8 9
9 12 8 10 13 13 14 14 14 14 15 13 12 13 13 16 14 14 13 15 14 15 14 10 8 7 6 4 3 3 3 4 6 8 7 8 9 9 11 12 10 8 7
10 10 11 9 11 13 15 15 14 14 17 17 14 11 12 14 14 14 13 11 10 9 8 8 8 7 6 5 5 5 6 6 7 9 11 12 12 13 12 11 12 10 8
7 6 6 6 8 11 13 16 20 23 22 20 17 17 15 14 13 13 13 12 11 10 9 9 10 9 8 7 7 7 8 8 9 10 11 12 12 12 14 15 12 14 9
4 1 4 5 8 15 16 16 20 23 23 19 16 13 12 13 12 14 13 13 12 13 12 12 12 11 10 9 9 9 9 10 11 11 11 13 14 12 12 13 13 14 10
5 5 7 9 8 10 13 18 21 23 23 22 20 18 17 17 17 17 16 15 13 12 12 12 12 11 10 9 9 9 11 14 12 12 10 10 12 13 11 13 12 12 13
6 7 10 11 13 15 18 16 22 21 21 22 22 22 21 18 16 13 12 12 11 11 12 12 10 10 12 12 12 11 10 11 13 12 8 9 10 11 10 12 14 13 12
8 11 8 13 14 15 18 20 24 28 29 27 25 23 22 19 15 12 12 12 10 8 9 10 10 11 10 11 13 12 12 11 11 10 10 10 11 11 12 10 10 12 12
Wind_Direction
205 208 209 214 217 218 220 226 225 229 229 224 223 225 229 232 234 234 239 240 238 239 239 238 241 243 248 249 248 246 249 246 262 278 277 285 286 286 284 285 281 276 268
204 205 208 211 213 213 217 220 222 227 228 228 224 225 227 229 231 234 238 240 239 241 242 238 240 241 244 246 246 245 248 248 254 271 278 276 279 279 282 280 278 273 272
200 203 207 208 210 212 213 216 218 226 228 226 225 224 224 228 231 237 242 243 240 241 243 243 247 242 244 247 246 251 256 259 257 267 278 280 278 283 281 285 280 276 271
200 202 203 204 206 211 211 211 213 224 227 225 225 225 223 228 231 235 238 241 243 241 244 246 248 247 250 253 254 256 261 260 263 266 275 280 279 282 277 282 284 280 277
196 197 200 204 206 208 207 208 214 217 225 227 227 226 226 227 231 231 232 235 240 244 246 248 250 252 255 259 254 257 256 261 264 268 271 275 275 275 275 288 287 289 286
193 198 198 198 200 204 206 206 209 217 222 221 221 224 225 227 232 233 233 232 237 241 246 250 254 260 266 269 271 270 257 255 263 268 274 276 276 278 286 286 289 291 291
193 194 194 195 197 202 204 203 206 213 218 219 221 223 227 231 236 238 241 239 241 245 248 251 255 257 264 265 269 275 274 271 265 262 268 269 277 279 281 279 278 275 278
190 191 192 194 197 200 202 204 207 211 213 216 221 223 228 235 241 244 245 246 245 245 247 250 253 257 259 260 266 269 268 267 269 269 262 273 272 277 273 275 277 276 278
190 192 192 192 194 197 200 203 206 208 214 219 223 224 226 234 240 245 245 239 244 246 247 249 250 255 257 258 261 267 271 270 270 270 274 280 281 284 284 281 277 276 277
191 193 191 192 193 195 199 201 203 207 214 218 224 228 230 234 241 247 245 234 241 246 248 249 250 249 252 254 255 257 264 271 272 275 276 278 286 289 291 282 284 265 268
188 188 190 193 194 197 198 201 203 207 213 216 223 227 229 233 237 244 246 233 235 242 245 248 248 249 255 256 258 254 256 266 270 274 277 280 283 283 284 283 289 282 271
180 184 190 192 195 200 198 199 202 205 211 216 222 228 232 234 239 241 245 241 232 235 241 246 249 250 256 266 263 262 267 270 270 272 273 273 274 277 280 282 288 286 285
181 185 189 191 195 195 196 199 202 205 210 215 217 224 226 228 232 241 242 245 242 234 240 246 250 255 262 263 262 265 267 267 268 264 265 274 283 288 290 292 294 295 295
182 185 187 187 190 195 200 204 205 205 208 213 214 220 224 225 225 225 236 238 240 243 242 245 248 251 255 260 264 264 263 272 266 264 270 279 286 289 296 302 304 308 307
199 193 191 190 189 191 196 204 208 210 211 208 215 214 213 223 227 219 212 217 231 237 239 243 246 248 252 258 265 254 239 228 231 252 267 281 288 296 299 304 306 309 308
165 193 208 200 191 186 182 182 202 205 211 213 210 214 223 215 214 217 215 224 231 234 215 221 223 220 213 206 205 220 231 219 223 258 273 282 292 296 300 309 309 307 318
42 97 68 122 215 185 186 175 159 141 209 215 216 220 225 221 208 199 209 218 195 177 175 167 163 165 181 182 181 199 214 205 281 292 291 291 291 291 300 303 308 314 324
20 110 102 219 225 196 169 159 159 161 152 125 178 195 199 193 181 188 185 164 143 129 128 128 119 113 115 129 131 332 325 319 311 309 297 295 292 291 300 302 313 328 321
22 132 172 183 177 155 142 136 136 134 129 127 124 123 134 139 136 142 148 137 131 121 117 111 101 95 83 67 34 4 337 323 320 318 307 299 298 296 298 296 294 305 315
33 59 89 114 114 115 119 125 128 131 132 132 127 128 129 126 119 105 106 116 114 120 121 112 105 95 82 53 18 356 338 348 339 332 315 300 295 289 289 290 288 289 302
7 47 62 74 95 109 119 124 125 120 115 112 109 126 134 122 108 109 106 97 94 92 105 113 103 93 77 54 32 13 358 343 329 310 297 291 291 295 294 289 282 282 284
345 27 65 89 112 119 121 123 123 121 117 114 113 123 134 114 107 105 102 99 98 96 102 104 96 88 74 56 38 23 5 347 333 321 306 302 299 299 299 295 285 276 259
286 142 116 109 123 127 120 123 121 122 121 119 120 114 114 114 113 110 106 105 104 98 93 89 87 83 77 64 48 31 11 347 335 325 314 306 303 299 298 298 289 275 243
240 186 153 138 137 130 127 127 124 126 125 123 123 120 118 122 120 118 114 111 105 97 89 82 75 68 57 47 37 23 5 0 350 347 328 311 307 303 299 300 297 281 256
207 176 163 151 139 131 123 119 113 114 111 112 113 114 117 113 109 101 99 100 103 104 98 94 86 76 63 54 46 33 14 8 11 360 347 332 327 325 314 299 297 295 276
193 166 161 148 138 135 129 124 117 118 115 116 116 116 116 108 102 100 102 105 103 96 96 92 82 74 69 51 40 29 21 18 13 10 30 360 355 352 342 333 326 308 284